TimeMDT,TemperatureF,Dew PointF,Humidity,Sea Level PressureIn,VisibilityMPH,Wind Direction,Wind SpeedMPH,Gust SpeedMPH,PrecipitationIn,Events,Conditions,WindDirDegrees,DateUTC
5:00 AM,26.6,26.6,100,30.24,10.0,SSE,15.0,21.9,N/A,,Light Freezing Drizzle,150,2013-04-04 11:00:00
5:50 AM,26.6,26.6,100,30.22,2.0,SSE,15.0,-,N/A,,Light Freezing Drizzle,160,2013-04-04 11:50:00
6:00 AM,27,27,98,30.22,2,SSE,13.8,,,Rain,Light Freezing Drizzle,160,2013-04-04 12:00:00
6:00 AM,26.6,26.6,100,30.22,2.0,SSE,15.0,-,N/A,,Light Freezing Drizzle,150,2013-04-04 12:00:00
7:00 AM,26.6,24.8,93,30.20,2.0,SSE,16.1,21.9,N/A,,Light Freezing Drizzle,160,2013-04-04 13:00:00
8:00 AM,26.6,24.8,93,30.19,1.5,SSE,18.4,-,N/A,,Light Freezing Drizzle,160,2013-04-04 14:00:00
9:00 AM,26.6,26.6,100,30.17,1.5,South,15.0,-,N/A,,Light Freezing Drizzle,170,2013-04-04 15:00:00
9:35 AM,28.4,28.4,100,30.14,3.0,SSE,15.0,21.9,N/A,,Overcast,150,2013-04-04 15:35:00
11:00 AM,30.2,28.4,93,30.11,5.0,South,11.5,18.4,N/A,,Overcast,170,2013-04-04 17:00:00
12:00 PM,30,29,93,30.09,6,SSE,12.7,,,,Mist,150,2013-04-04 18:00:00
12:00 PM,30.2,28.4,93,30.09,6.0,SSE,12.7,-,N/A,,Overcast,150,2013-04-04 18:00:00
1:00 PM,32.0,30.2,93,30.06,6.0,SSE,11.5,-,N/A,,Overcast,150,2013-04-04 19:00:00
2:00 PM,32.0,30.2,93,30.02,6.0,SSE,10.4,19.6,N/A,,Overcast,150,2013-04-04 20:00:00
3:00 PM,33.8,30.2,87,29.99,6.0,SSE,12.7,19.6,N/A,,Overcast,160,2013-04-04 21:00:00
4:00 PM,35.6,32.0,87,29.96,6.0,SSE,11.5,-,N/A,,Overcast,160,2013-04-04 22:00:00
5:00 PM,37.4,32.0,81,29.92,7.0,SE,10.4,-,N/A,,Overcast,140,2013-04-04 23:00:00
6:00 PM,39,32,67,29.88,7,SSE,11.5,,,,Overcast,150,2013-04-05 00:00:00
6:00 PM,39.2,32.0,75,29.88,8.0,SSE,11.5,-,N/A,,Overcast,150,2013-04-05 00:00:00
7:00 PM,39.2,32.0,75,29.84,12.0,SE,6.9,-,N/A,,Overcast,140,2013-04-05 01:00:00
8:00 PM,37.4,30.2,75,29.82,20.0,SE,5.8,-,N/A,,Overcast,130,2013-04-05 02:00:00
9:00 PM,35.6,30.2,81,29.79,15.0,Calm,Calm,-,N/A,,Overcast,0,2013-04-05 03:00:00
10:00 PM,35.6,30.2,81,29.77,15.0,Calm,Calm,-,N/A,,Overcast,0,2013-04-05 04:00:00